Location: Kalispell
(48.1967°N, 114.3128°W)
Time: 06:04:00
(UTC-06:00)

Amateur Radio Satellites - All Passes

Search period start: 31 October 2014 05:33
Search period end: 01 November 2014 05:33
Location: Kalispell, 48.1967°N, 114.3128°W

Satellite Date Start Highest point End Downlink Frequencies (MHz)
Time Altitude Azimuth
OPAL 31 Oct 05:36:37 05:41:41 71° 70° (ENE) 05:46:43 ?
Uribyol 2 31 Oct 05:43:03 05:46:31 18° 303° (WNW) 05:49:59 436.500 FM
AO-Echo 31 Oct 05:49:19 05:51:59 14° 306° (NW) 05:54:39 ?
ITAMSAT 1 31 Oct 05:51:04 05:54:20 17° 304° (NW) 05:57:36 435.822 SSB
PCSat 31 Oct 05:55:06 05:59:03 20° 329° (NNW) 06:03:00 145.825 MHz
STRAND 1 31 Oct 05:55:56 05:59:06 17° 56° (NE) 06:02:15 ?
Uosat F 31 Oct 05:59:54 06:04:53 56° 101° (E) 06:09:50 435.120 FM
Saudisat 1A 31 Oct 06:23:04 06:26:44 26° 116° (ESE) 06:30:25 436.775 MHz
JAS-2 31 Oct 06:25:43 06:33:04 41° 94° (E) 06:40:15 435.800 - 435.900 CW/SSB, 435.910 FM
AO-7 31 Oct 06:43:46 06:52:06 78° 293° (WNW) 07:00:26 29.400 - 29.500 MHz
Gurwin Techsat 1B 31 Oct 06:55:03 06:55:12 10° 311° (NW) 06:55:20 435.225 FM
TMSAT-1 31 Oct 07:00:15 07:01:53 11° 309° (NW) 07:03:31 436.925 FM
OPAL 31 Oct 07:17:42 07:21:04 18° 268° (W) 07:24:25 ?
Sapphire 31 Oct 07:20:40 07:22:20 11° 348° (NNW) 07:24:00 437.095 MHz 1200 baud AX-25 AFSK
Hamsat 31 Oct 07:23:26 07:27:38 63° 101° (E) 07:31:50 145.90 MHz
RS-15 31 Oct 07:32:15 07:43:11 65° 242° (WSW) 07:54:34 29.354 - 29.394 USB, Beacon 29.352 USB
STRAND 1 31 Oct 07:32:27 07:37:36 87° 255° (WSW) 07:42:48 ?
Uosat F 31 Oct 07:39:21 07:43:20 24° 300° (WNW) 07:47:17 435.120 FM
PCSat 31 Oct 07:43:56 07:44:45 10° 355° (N) 07:45:33 145.825 MHz
MaSat-1 31 Oct 07:45:08 07:47:30 30° 53° (NE) 07:49:42 437.345 MHz
Saudisat 1A 31 Oct 08:01:50 08:06:05 47° 315° (NW) 08:10:23 436.775 MHz
JAS-2 31 Oct 08:10:40 08:18:14 54° 294° (WNW) 08:25:41 435.800 - 435.900 CW/SSB, 435.910 FM
SO-67 31 Oct 08:24:37 08:27:52 38° 98° (E) 08:31:06 435.3500 MHz FM
AO-7 31 Oct 08:37:35 08:43:44 24° 315° (NW) 08:49:53 29.400 - 29.500 MHz
Hamsat 31 Oct 09:00:32 09:03:08 16° 299° (WNW) 09:05:44 145.90 MHz
Sapphire 31 Oct 09:06:19 09:08:24 12° 15° (NNE) 09:10:28 437.095 MHz 1200 baud AX-25 AFSK
STRAND 1 31 Oct 09:15:16 09:17:34 13° 273° (W) 09:19:53 ?
HO-68 31 Oct 09:24:21 09:29:37 21° 89° (E) 09:34:51 435.675 MHz FM
PCSat 31 Oct 09:27:50 09:30:43 14° 22° (NNE) 09:33:36 145.825 MHz
Saudisat 1A 31 Oct 09:44:17 09:46:43 14° 338° (NNW) 09:49:09 436.775 MHz
RS-15 31 Oct 09:47:14 09:53:14 16° 264° (W) 09:59:22 29.354 - 29.394 USB, Beacon 29.352 USB
JAS-2 31 Oct 09:57:28 10:01:37 16° 315° (NW) 10:05:47 435.800 - 435.900 CW/SSB, 435.910 FM
SO-67 31 Oct 09:58:19 10:00:34 17° 295° (WNW) 10:02:49 435.3500 MHz FM
Oscar 11 31 Oct 10:06:19 10:07:36 11° 87° (E) 10:08:52 145.825 FM, Beacon 2401.500 USB
KITSAT 1 31 Oct 10:37:53 10:43:45 23° 103° (ESE) 10:49:38 435.175 FM
Sapphire 31 Oct 10:48:55 10:53:41 30° 40° (NE) 10:58:26 437.095 MHz 1200 baud AX-25 AFSK
UKube-1 31 Oct 11:05:03 11:09:14 43° 99° (E) 11:13:23 145.840 MHz, 145.915 MHz
PCSat 31 Oct 11:10:31 11:15:40 41° 46° (NE) 11:20:47 145.825 MHz
HO-68 31 Oct 11:10:57 11:18:12 85° 289° (WNW) 11:25:23 435.675 MHz FM
ZACube-1 31 Oct 11:14:16 11:17:43 24° 93° (E) 11:21:06 437.345 MHz
Oscar 11 31 Oct 11:40:03 11:44:23 84° 285° (WNW) 11:48:42 145.825 FM, Beacon 2401.500 USB
ISS 31 Oct 11:48:31 11:51:44 48° 149° (SSE) 11:54:58 145.800 FM
SO-50 31 Oct 11:51:24 11:55:26 33° 117° (ESE) 11:59:36 436.795 FM
FUNcube-1 31 Oct 11:56:41 12:00:53 65° 101° (ESE) 12:05:00 145.950 - 145.970 MHz USB
Oscar 19 31 Oct 12:28:03 12:30:30 14° 54° (NE) 12:32:56 437.125 CW, 437.150 USB
KITSAT 1 31 Oct 12:30:01 12:38:07 88° 124° (SE) 12:46:15 435.175 FM
Sapphire 31 Oct 12:32:08 12:37:31 63° 241° (WSW) 12:42:52 437.095 MHz 1200 baud AX-25 AFSK
UOSAT-12 31 Oct 12:38:40 12:39:55 11° 107° (ESE) 12:41:10 437.025 FM, 437.400 FM
JAS-1B 31 Oct 12:39:39 12:43:25 19° 53° (NE) 12:47:16 435.800 - 435.900 CW/SSB
UKube-1 31 Oct 12:41:44 12:45:12 24° 297° (WNW) 12:48:39 145.840 MHz, 145.915 MHz
ZACube-1 31 Oct 12:50:21 12:54:14 36° 292° (WNW) 12:58:02 437.345 MHz
PCSat 31 Oct 12:54:03 12:59:06 40° 246° (WSW) 13:04:07 145.825 MHz
HO-68 31 Oct 12:59:45 13:04:58 22° 310° (NW) 13:10:11 435.675 MHz FM
AO-27 31 Oct 13:04:30 13:06:50 13° 52° (NE) 13:09:11 436.795 MHz FM
Saudisat 1A 31 Oct 13:06:42 13:09:37 17° 27° (NNE) 13:12:32 436.775 MHz
Oscar 16 31 Oct 13:12:37 13:17:03 30° 63° (ENE) 13:21:29 437.025 USB, Beacon 2401.1428
Oscar 11 31 Oct 13:18:25 13:19:52 12° 303° (WNW) 13:21:18 145.825 FM, Beacon 2401.500 USB
Gurwin Techsat 1B 31 Oct 13:21:58 13:22:32 10° 49° (NE) 13:23:07 435.225 FM
ISS 31 Oct 13:25:10 13:28:26 53° 348° (NNW) 13:31:44 145.800 FM
SO-50 31 Oct 13:31:35 13:35:55 42° 318° (NW) 13:40:23 436.795 FM
FUNcube-1 31 Oct 13:34:18 13:36:47 16° 300° (WNW) 13:39:15 145.950 - 145.970 MHz USB
Uribyol 2 31 Oct 13:45:42 13:50:04 28° 62° (ENE) 13:54:26 436.500 FM
AO-Echo 31 Oct 13:47:19 13:51:45 32° 64° (ENE) 13:56:18 ?
ITAMSAT 1 31 Oct 13:53:31 13:58:00 30° 63° (ENE) 14:02:30 435.822 SSB
Oscar 19 31 Oct 14:03:53 14:09:00 76° 73° (ENE) 14:14:09 437.125 CW, 437.150 USB
AO-7 31 Oct 14:06:44 14:11:18 16° 37° (NE) 14:15:52 29.400 - 29.500 MHz
UOSAT-12 31 Oct 14:14:34 14:19:12 74° 126° (SE) 14:23:57 437.025 FM, 437.400 FM
KITSAT 1 31 Oct 14:27:18 14:34:31 34° 329° (NNW) 14:41:45 435.175 FM
JAS-1B 31 Oct 14:27:41 14:33:24 80° 255° (WSW) 14:39:14 435.800 - 435.900 CW/SSB
AO-27 31 Oct 14:40:15 14:45:27 71° 72° (ENE) 14:50:41 436.795 MHz FM
Saudisat 1A 31 Oct 14:45:36 14:50:01 65° 48° (NE) 14:54:25 436.775 MHz
Oscar 16 31 Oct 14:51:22 14:56:15 43° 262° (W) 15:01:09 437.025 USB, Beacon 2401.1428
Gurwin Techsat 1B 31 Oct 14:56:13 15:01:22 54° 69° (ENE) 15:06:34 435.225 FM
ISS 31 Oct 15:02:13 15:05:28 48° 8° (N) 15:08:44 145.800 FM
TMSAT-1 31 Oct 15:02:39 15:07:42 47° 68° (ENE) 15:12:47 436.925 FM
SO-50 31 Oct 15:15:08 15:17:43 15° 341° (NNW) 15:20:20 436.795 FM
Uribyol 2 31 Oct 15:24:14 15:29:17 49° 260° (W) 15:34:23 436.500 FM
AO-Echo 31 Oct 15:25:40 15:30:23 40° 263° (W) 15:35:17 ?
ITAMSAT 1 31 Oct 15:32:20 15:37:19 45° 261° (W) 15:42:21 435.822 SSB
Uosat F 31 Oct 15:40:08 15:43:33 19° 57° (ENE) 15:46:58 435.120 FM
Oscar 19 31 Oct 15:45:48 15:48:57 16° 271° (W) 15:52:06 437.125 CW, 437.150 USB
AO-7 31 Oct 15:54:22 16:02:15 52° 60° (ENE) 16:10:11 29.400 - 29.500 MHz
UOSAT-12 31 Oct 15:55:57 15:59:51 25° 327° (NNW) 16:03:47 437.025 FM, 437.400 FM
AO-27 31 Oct 16:21:59 16:25:30 18° 270° (W) 16:29:03 436.795 MHz FM
JAS-1B 31 Oct 16:23:43 16:25:17 11° 276° (W) 16:26:52 435.800 - 435.900 CW/SSB
Saudisat 1A 31 Oct 16:26:03 16:29:09 19° 247° (WSW) 16:32:15 436.775 MHz
KITSAT 1 31 Oct 16:26:43 16:32:41 22° 358° (N) 16:38:40 435.175 FM
Gurwin Techsat 1B 31 Oct 16:37:24 16:41:40 24° 268° (W) 16:45:58 435.225 FM
ISS 31 Oct 16:38:58 16:42:17 64° 208° (SSW) 16:45:35 145.800 FM
JAS-2 31 Oct 16:42:24 16:47:47 27° 55° (NE) 16:53:40 435.800 - 435.900 CW/SSB, 435.910 FM
TMSAT-1 31 Oct 16:43:19 16:47:50 28° 266° (W) 16:52:23 436.925 FM
SO-50 31 Oct 16:58:51 17:00:20 11° 6° (N) 17:01:49 436.795 FM
Uosat F 31 Oct 17:16:45 17:21:47 75° 256° (WSW) 17:26:52 435.120 FM
UOSAT-12 31 Oct 17:39:58 17:41:39 12° 350° (N) 17:43:21 437.025 FM, 437.400 FM
OPAL 31 Oct 17:44:56 17:46:57 12° 89° (E) 17:48:58 ?
AO-7 31 Oct 17:47:24 17:55:11 44° 261° (W) 18:03:03 29.400 - 29.500 MHz
ISS 31 Oct 18:16:56 18:18:26 13° 225° (SW) 18:19:56 145.800 FM
Hamsat 31 Oct 18:20:01 18:24:10 70° 74° (ENE) 18:28:20 145.90 MHz
KITSAT 1 31 Oct 18:23:58 18:31:00 31° 28° (NNE) 18:38:00 435.175 FM
JAS-2 31 Oct 18:25:40 18:32:05 75° 257° (WSW) 18:39:24 435.800 - 435.900 CW/SSB, 435.910 FM
SO-50 31 Oct 18:38:57 18:42:40 22° 30° (NNE) 18:46:26 436.795 FM
Oscar 10/S400 31 Oct 18:44:40 19:06:52 48° 180° (S) 00:57:43 145.825 - 145.975 CW/USB, Beacon 145.810 USB
Uosat F 31 Oct 19:00:43 19:01:27 10° 275° (W) 19:02:11 435.120 FM
SO-67 31 Oct 19:00:52 19:03:38 23° 67° (ENE) 19:06:25 435.3500 MHz FM
OPAL 31 Oct 19:21:35 19:26:35 88° 108° (ESE) 19:31:32 ?
UOSAT-12 31 Oct 19:21:37 19:23:53 13° 16° (NNE) 19:26:08 437.025 FM, 437.400 FM
STRAND 1 31 Oct 19:39:59 19:44:10 24° 93° (E) 19:48:18 ?
RS-15 31 Oct 19:55:35 20:00:18 14° 94° (E) 20:05:00 29.354 - 29.394 USB, Beacon 29.352 USB
HO-68 31 Oct 19:57:15 20:02:56 27° 53° (NE) 20:08:39 435.675 MHz FM
Hamsat 31 Oct 19:58:43 20:00:36 13° 272° (W) 20:02:30 145.90 MHz
JAS-2 31 Oct 20:15:03 20:18:35 15° 280° (W) 20:22:19 435.800 - 435.900 CW/SSB, 435.910 FM
SO-50 31 Oct 20:19:03 20:23:55 85° 51° (NE) 20:28:49 436.795 FM
KITSAT 1 31 Oct 20:19:31 20:27:39 81° 53° (NE) 20:35:45 435.175 FM
SO-67 31 Oct 20:33:37 20:36:31 25° 265° (W) 20:39:27 435.3500 MHz FM
UOSAT-12 31 Oct 21:01:07 21:05:26 33° 39° (NE) 21:09:42 437.025 FM, 437.400 FM
OPAL 31 Oct 21:01:50 21:04:49 16° 307° (NW) 21:07:47 ?
Oscar 11 31 Oct 21:04:26 21:06:59 16° 60° (ENE) 21:09:33 145.825 FM, Beacon 2401.500 USB
STRAND 1 31 Oct 21:18:38 21:23:38 51° 291° (WNW) 21:28:36 ?
FUNcube-1 31 Oct 21:23:16 21:24:51 12° 57° (ENE) 21:26:26 145.950 - 145.970 MHz USB
HO-68 31 Oct 21:42:46 21:49:57 80° 254° (WSW) 21:57:12 435.675 MHz FM
RS-15 31 Oct 21:59:25 22:10:04 60° 117° (ESE) 22:20:43 29.354 - 29.394 USB, Beacon 29.352 USB
SO-50 31 Oct 22:00:56 22:03:53 16° 250° (WSW) 22:06:50 436.795 FM
UKube-1 31 Oct 22:03:42 22:08:00 60° 72° (ENE) 22:12:19 145.840 MHz, 145.915 MHz
ZACube-1 31 Oct 22:13:51 22:17:52 33° 67° (ENE) 22:21:50 437.345 MHz
KITSAT 1 31 Oct 22:15:47 22:22:15 27° 254° (WSW) 22:28:42 435.175 FM
Oscar 11 31 Oct 22:38:22 22:42:40 69° 258° (WSW) 22:47:00 145.825 FM, Beacon 2401.500 USB
UOSAT-12 31 Oct 22:41:13 22:45:46 47° 239° (WSW) 22:50:13 437.025 FM, 437.400 FM
FUNcube-1 31 Oct 22:56:02 23:00:33 82° 75° (ENE) 23:04:59 145.950 - 145.970 MHz USB
MaSat-1 31 Oct 22:57:44 23:01:24 48° 116° (ESE) 23:04:42 437.345 MHz
HO-68 31 Oct 23:34:26 23:38:47 17° 274° (W) 23:43:10 435.675 MHz FM
UKube-1 31 Oct 23:41:50 23:44:35 16° 269° (W) 23:47:20 145.840 MHz, 145.915 MHz
ZACube-1 31 Oct 23:50:17 23:54:16 30° 265° (W) 23:58:12 437.345 MHz
RS-15 01 Nov 00:12:04 00:22:42 54° 324° (NW) 00:33:29 29.354 - 29.394 USB, Beacon 29.352 USB
MaSat-1 01 Nov 00:34:26 00:36:56 18° 311° (NW) 00:39:17 437.345 MHz
FUNcube-1 01 Nov 00:35:38 00:37:28 12° 272° (W) 00:39:17 145.950 - 145.970 MHz USB
PCSat 01 Nov 01:58:24 02:01:25 15° 104° (ESE) 02:04:28 145.825 MHz
JAS-1B 01 Nov 02:06:00 02:11:51 26° 93° (E) 02:18:28 435.800 - 435.900 CW/SSB
Oscar 19 01 Nov 02:12:36 02:16:22 20° 91° (E) 02:20:07 437.125 CW, 437.150 USB
RS-15 01 Nov 02:28:26 02:38:05 34° 356° (N) 02:47:56 29.354 - 29.394 USB, Beacon 29.352 USB
AO-27 01 Nov 02:50:35 02:54:17 19° 90° (E) 02:57:57 436.795 MHz FM
Oscar 16 01 Nov 02:59:00 03:04:00 51° 100° (E) 03:08:59 437.025 USB, Beacon 2401.1428
Gurwin Techsat 1B 01 Nov 03:09:54 03:13:09 16° 88° (E) 03:16:23 435.225 FM
TMSAT-1 01 Nov 03:16:20 03:18:57 14° 86° (E) 03:21:34 436.925 FM
Sapphire 01 Nov 03:17:11 03:22:28 58° 118° (ESE) 03:27:48 437.095 MHz 1200 baud AX-25 AFSK
AO-Echo 01 Nov 03:28:42 03:33:56 53° 100° (E) 03:39:05 ?
Uribyol 2 01 Nov 03:33:09 03:38:09 45° 99° (E) 03:43:06 436.500 FM
PCSat 01 Nov 03:38:37 03:44:03 88° 123° (ESE) 03:49:31 145.825 MHz
ITAMSAT 1 01 Nov 03:41:14 03:46:20 50° 100° (E) 03:51:22 435.822 SSB
Oscar 19 01 Nov 03:51:05 03:56:08 61° 289° (WNW) 04:01:10 437.125 CW, 437.150 USB
JAS-1B 01 Nov 03:55:59 04:02:54 75° 289° (WNW) 04:11:13 435.800 - 435.900 CW/SSB
AO-7 01 Nov 03:56:27 03:57:17 10° 80° (E) 03:58:06 29.400 - 29.500 MHz
AO-27 01 Nov 04:29:04 04:34:17 67° 289° (WNW) 04:39:26 436.795 MHz FM
Oscar 16 01 Nov 04:38:54 04:43:05 26° 299° (WNW) 04:47:15 437.025 USB, Beacon 2401.1428
RS-15 01 Nov 04:43:21 04:53:52 46° 30° (NNE) 05:04:43 29.354 - 29.394 USB, Beacon 29.352 USB
Gurwin Techsat 1B 01 Nov 04:48:25 04:53:46 80° 287° (WNW) 04:59:05 435.225 FM
TMSAT-1 01 Nov 04:54:18 04:59:39 89° 105° (ESE) 05:04:57 436.925 FM
Sapphire 01 Nov 05:01:26 05:06:14 31° 319° (NW) 05:11:04 437.095 MHz 1200 baud AX-25 AFSK
OPAL 01 Nov 05:01:58 05:06:36 36° 63° (ENE) 05:11:11 ?
AO-Echo 01 Nov 05:08:00 05:12:23 27° 298° (WNW) 05:16:44 ?
Uribyol 2 01 Nov 05:12:59 05:17:27 29° 298° (WNW) 05:21:52 436.500 FM
ITAMSAT 1 01 Nov 05:21:14 05:25:34 27° 299° (WNW) 05:29:53 435.822 SSB
Uosat F 01 Nov 05:21:16 05:25:29 26° 94° (E) 05:29:39 435.120 FM
PCSat 01 Nov 05:23:53 05:28:11 23° 325° (NW) 05:32:31 145.825 MHz
